TimeEDT,TemperatureF,Dew PointF,Humidity,Sea Level PressureIn,VisibilityMPH,Wind Direction,Wind SpeedMPH,Gust SpeedMPH,PrecipitationIn,Events,Conditions,WindDirDegrees,DateUTC
12:53 AM,68.0,68.0,100,30.03,10.0,NNW,4.6,-,N/A,,Mostly Cloudy,340,2013-09-29 04:53:00
1:53 AM,68.0,68.0,100,30.01,10.0,North,4.6,-,N/A,,Clear,360,2013-09-29 05:53:00
2:53 AM,66.9,66.9,100,29.99,10.0,North,4.6,-,N/A,,Scattered Clouds,350,2013-09-29 06:53:00
3:53 AM,69.1,69.1,100,29.99,10.0,North,4.6,-,N/A,,Overcast,360,2013-09-29 07:53:00
4:53 AM,69.1,69.1,100,29.98,10.0,NNW,5.8,-,N/A,,Overcast,330,2013-09-29 08:53:00
5:53 AM,69.1,68.0,96,30.00,10.0,North,5.8,-,N/A,,Mostly Cloudy,350,2013-09-29 09:53:00
6:53 AM,68.0,68.0,100,30.01,10.0,NNW,4.6,-,N/A,,Partly Cloudy,340,2013-09-29 10:53:00
7:53 AM,68.0,68.0,100,30.02,10.0,NNW,3.5,-,N/A,,Scattered Clouds,330,2013-09-29 11:53:00
8:05 AM,69.8,69.8,100,30.02,10.0,NNW,4.6,-,N/A,,Scattered Clouds,330,2013-09-29 12:05:00
8:53 AM,70.0,69.1,97,30.02,10.0,NNE,8.1,-,N/A,,Scattered Clouds,20,2013-09-29 12:53:00
9:53 AM,75.9,70.0,82,30.03,10.0,North,4.6,-,N/A,,Clear,360,2013-09-29 13:53:00
10:53 AM,80.1,70.0,71,30.02,10.0,NE,8.1,-,N/A,,Scattered Clouds,40,2013-09-29 14:53:00
11:36 AM,80.6,69.8,70,30.02,10.0,NNE,8.1,-,N/A,,Mostly Cloudy,30,2013-09-29 15:36:00
11:43 AM,82.4,69.8,66,30.02,10.0,NNE,8.1,-,N/A,,Mostly Cloudy,30,2013-09-29 15:43:00
11:53 AM,79.0,68.0,69,30.01,10.0,NE,5.8,-,N/A,,Mostly Cloudy,50,2013-09-29 15:53:00
12:53 PM,82.0,66.0,58,30.01,10.0,North,8.1,-,N/A,,Mostly Cloudy,10,2013-09-29 16:53:00
1:53 PM,84.9,66.9,55,29.98,10.0,ENE,5.8,-,N/A,,Partly Cloudy,70,2013-09-29 17:53:00
2:53 PM,82.0,68.0,62,29.96,10.0,ENE,10.4,-,N/A,,Mostly Cloudy,60,2013-09-29 18:53:00
3:53 PM,84.9,66.9,55,29.94,10.0,ENE,9.2,17.3,N/A,,Partly Cloudy,60,2013-09-29 19:53:00
4:53 PM,82.0,68.0,62,29.94,10.0,East,11.5,-,N/A,,Mostly Cloudy,100,2013-09-29 20:53:00
5:53 PM,81.0,69.1,67,29.94,10.0,East,8.1,-,N/A,,Clear,80,2013-09-29 21:53:00
6:53 PM,79.0,66.9,66,29.96,10.0,ENE,9.2,-,N/A,,Partly Cloudy,70,2013-09-29 22:53:00
7:53 PM,75.9,68.0,76,29.98,10.0,NE,10.4,-,N/A,,Clear,50,2013-09-29 23:53:00
8:53 PM,73.0,69.1,87,29.99,10.0,NE,5.8,-,N/A,,Clear,40,2013-09-30 00:53:00
9:53 PM,72.0,68.0,87,30.00,10.0,NE,4.6,-,N/A,,Clear,50,2013-09-30 01:53:00
10:53 PM,71.1,68.0,90,30.00,10.0,NE,5.8,-,N/A,,Clear,40,2013-09-30 02:53:00
11:53 PM,70.0,68.0,93,29.99,10.0,Calm,Calm,-,N/A,,Clear,0,2013-09-30 03:53:00